| time (UTC) | temp F | wind direction | speed knots | gust knots | rain 1hr in | rain 24hr in | rain mn in | humidity % | barometer mb |
| 20260903011017 | 80 | 207 | 0.9 | 2.6 | 0.00 | 0.00 | 0.00 | 86 | 1017.3 |
| 20260903010527 | 80 | 222 | 1.7 | 2.6 | 0.00 | 0.00 | 0.00 | 86 | 1017.3 |
| 20260903010019 | 81 | 225 | 0.0 | 1.7 | 0.00 | 0.00 | 0.00 | 85 | 1017.2 |
| 20260903005529 | 81 | 227 | 0.9 | 1.7 | 0.00 | 0.00 | 0.00 | 85 | 1017.2 |
| 20260903005021 | 81 | 238 | 0.9 | 1.7 | 0.00 | 0.00 | 0.00 | 84 | 1017.2 |
| 20260903004532 | 81 | 231 | 0.9 | 1.7 | 0.00 | 0.00 | 0.00 | 84 | 1017.1 |
| 20260903004024 | 82 | 220 | 0.9 | 1.7 | 0.00 | 0.00 | 0.00 | 83 | 1017.1 |
| 20260903003516 | 82 | 215 | 0.9 | 2.6 | 0.00 | 0.00 | 0.00 | 82 | 1017.1 |
| 20260903003026 | 82 | 213 | 0.9 | 2.6 | 0.00 | 0.00 | 0.00 | 82 | 1017.1 |
| 20260903002518 | 83 | 219 | 0.9 | 2.6 | 0.00 | 0.00 | 0.00 | 80 | 1017.1 |
| 20260903002030 | 83 | 0.0 | 0.0 | 0.00 | 0.00 | 0.00 | 79 | 1017.0 | |
| 20260903001521 | 84 | 203 | 0.0 | 1.7 | 0.00 | 0.00 | 0.00 | 79 | 1017.1 |
| 20260903001031 | 85 | 225 | 0.9 | 1.7 | 0.00 | 0.00 | 0.00 | 77 | 1017.1 |
| 20260903000523 | 85 | 206 | 0.9 | 2.6 | 0.00 | 0.00 | 0.00 | 75 | 1017.1 |
| 20260903000015 | 86 | 221 | 1.7 | 3.5 | 0.00 | 0.00 | 0.00 | 74 | 1017.0 |
| 20260902235526 | 87 | 213 | 1.7 | 3.5 | 0.00 | 0.00 | 0.00 | 73 | 1017.0 |
| 20260902235018 | 88 | 233 | 1.7 | 3.5 | 0.00 | 0.00 | 0.00 | 71 | 1017.0 |
| 20260902234528 | 88 | 227 | 1.7 | 2.6 | 0.00 | 0.00 | 0.00 | 72 | 1017.0 |
| 20260902234020 | 87 | 217 | 1.7 | 3.5 | 0.00 | 0.00 | 0.00 | 74 | 1017.0 |
| 20260902233525 | 87 | 239 | 1.7 | 5.2 | 0.00 | 0.00 | 0.00 | 74 | 1017.0 |
| 20260902233024 | 87 | 226 | 1.7 | 2.6 | 0.00 | 0.00 | 0.00 | 73 | 1017.0 |
| 20260902232515 | 88 | 243 | 2.6 | 4.3 | 0.00 | 0.00 | 0.00 | 71 | 1017.0 |
| 20260902232020 | 88 | 237 | 1.7 | 4.3 | 0.00 | 0.00 | 0.00 | 72 | 1017.0 |
| 20260902231518 | 88 | 230 | 2.6 | 4.3 | 0.00 | 0.00 | 0.00 | 71 | 1017.0 |
| 20260902231016 | 89 | 219 | 2.6 | 3.5 | 0.00 | 0.00 | 0.00 | 70 | 1016.9 |
| 20260902230520 | 89 | 242 | 2.6 | 4.3 | 0.00 | 0.00 | 0.00 | 69 | 1016.9 |
| 20260902230030 | 90 | 238 | 2.6 | 4.3 | 0.00 | 0.00 | 0.00 | 68 | 1017.0 |
| 20260902225522 | 90 | 241 | 2.6 | 4.3 | 0.00 | 0.00 | 0.00 | 68 | 1017.0 |
| 20260902225033 | 91 | 250 | 2.6 | 4.3 | 0.00 | 0.00 | 0.00 | 67 | 1017.1 |
| 20260902224525 | 91 | 248 | 1.7 | 2.6 | 0.00 | 0.00 | 0.00 | 67 | 1017.1 |
| 20260902224017 | 91 | 226 | 2.6 | 4.3 | 0.00 | 0.00 | 0.00 | 66 | 1017.1 |
| 20260902223527 | 91 | 241 | 2.6 | 6.1 | 0.00 | 0.00 | 0.00 | 66 | 1017.1 |
| 20260902223020 | 91 | 218 | 2.6 | 4.3 | 0.00 | 0.00 | 0.00 | 65 | 1017.1 |
| 20260902222530 | 92 | 246 | 3.5 | 5.2 | 0.00 | 0.00 | 0.00 | 65 | 1017.1 |
| 20260902222022 | 92 | 244 | 3.5 | 5.2 | 0.00 | 0.00 | 0.00 | 64 | 1017.1 |
| 20260902221532 | 93 | 255 | 3.5 | 5.2 | 0.00 | 0.00 | 0.00 | 63 | 1017.1 |
| 20260902221025 | 93 | 246 | 2.6 | 4.3 | 0.00 | 0.00 | 0.00 | 63 | 1017.1 |
| 20260902220517 | 93 | 260 | 3.5 | 5.2 | 0.00 | 0.00 | 0.00 | 61 | 1017.1 |
| 20260902220023 | 93 | 244 | 3.5 | 7.0 | 0.00 | 0.00 | 0.00 | 62 | 1017.0 |
| 20260902215532 | 93 | 244 | 2.6 | 4.3 | 0.00 | 0.00 | 0.00 | 63 | 1017.0 |
| 20260902215024 | 93 | 243 | 3.5 | 5.2 | 0.00 | 0.00 | 0.00 | 61 | 1017.1 |
| 20260902214517 | 94 | 227 | 3.5 | 7.0 | 0.00 | 0.00 | 0.00 | 61 | 1017.1 |
| 20260902214027 | 94 | 211 | 3.5 | 4.3 | 0.00 | 0.00 | 0.00 | 61 | 1017.1 |
| 20260902213519 | 94 | 235 | 3.5 | 6.1 | 0.00 | 0.00 | 0.00 | 60 | 1017.2 |
| 20260902213029 | 94 | 218 | 3.5 | 5.2 | 0.00 | 0.00 | 0.00 | 60 | 1017.2 |
| 20260902212521 | 94 | 229 | 4.3 | 6.1 | 0.00 | 0.00 | 0.00 | 59 | 1017.2 |
| 20260902212032 | 95 | 229 | 3.5 | 6.1 | 0.00 | 0.00 | 0.00 | 60 | 1017.2 |
| 20260902211524 | 95 | 242 | 3.5 | 6.1 | 0.00 | 0.00 | 0.00 | 58 | 1017.3 |
| 20260902211016 | 95 | 262 | 3.5 | 5.2 | 0.00 | 0.00 | 0.00 | 58 | 1017.3 |
| 20260902210527 | 95 | 233 | 3.5 | 5.2 | 0.00 | 0.00 | 0.00 | 59 | 1017.3 |
| 20260902210018 | 95 | 233 | 3.5 | 6.1 | 0.00 | 0.00 | 0.00 | 58 | 1017.3 |
| 20260902205529 | 95 | 233 | 3.5 | 6.1 | 0.00 | 0.00 | 0.00 | 57 | 1017.3 |
| 20260902205021 | 95 | 252 | 3.5 | 6.1 | 0.00 | 0.00 | 0.00 | 56 | 1017.5 |
| 20260902204525 | 96 | 233 | 3.5 | 7.0 | 0.00 | 0.00 | 0.00 | 55 | 1017.6 |
| 20260902204023 | 95 | 283 | 3.5 | 5.2 | 0.00 | 0.00 | 0.00 | 56 | 1017.6 |
| 20260902203515 | 96 | 265 | 4.3 | 7.0 | 0.00 | 0.00 | 0.00 | 57 | 1017.6 |
| 20260902203020 | 95 | 256 | 4.3 | 6.1 | 0.00 | 0.00 | 0.00 | 56 | 1017.6 |
| 20260902202518 | 95 | 213 | 4.3 | 7.0 | 0.00 | 0.00 | 0.00 | 57 | 1017.8 |
| 20260902202016 | 95 | 221 | 3.5 | 6.1 | 0.00 | 0.00 | 0.00 | 57 | 1017.8 |
| 20260902201520 | 96 | 272 | 3.5 | 6.1 | 0.00 | 0.00 | 0.00 | 56 | 1017.9 |
| 20260902201030 | 96 | 235 | 3.5 | 7.8 | 0.00 | 0.00 | 0.00 | 55 | 1018.0 |
| 20260902200522 | 96 | 230 | 3.5 | 5.2 | 0.00 | 0.00 | 0.00 | 57 | 1018.0 |
| 20260902200033 | 95 | 243 | 3.5 | 7.8 | 0.00 | 0.00 | 0.00 | 57 | 1018.2 |
| 20260902195525 | 95 | 201 | 5.2 | 7.0 | 0.00 | 0.00 | 0.00 | 56 | 1018.2 |
| 20260902195017 | 95 | 242 | 5.2 | 7.0 | 0.00 | 0.00 | 0.00 | 55 | 1018.2 |
| 20260902194528 | 96 | 239 | 3.5 | 5.2 | 0.00 | 0.00 | 0.00 | 56 | 1018.2 |
| 20260902194020 | 96 | 181 | 4.3 | 6.1 | 0.00 | 0.00 | 0.00 | 55 | 1018.2 |
| 20260902193530 | 96 | 249 | 3.5 | 4.3 | 0.00 | 0.00 | 0.00 | 57 | 1018.3 |
| 20260902193023 | 97 | 273 | 4.3 | 6.1 | 0.00 | 0.00 | 0.00 | 56 | 1018.3 |
| 20260902192533 | 96 | 255 | 3.5 | 5.2 | 0.00 | 0.00 | 0.00 | 58 | 1018.3 |
| 20260902192025 | 96 | 296 | 3.5 | 6.1 | 0.00 | 0.00 | 0.00 | 57 | 1018.3 |
| 20260902191517 | 96 | 239 | 4.3 | 7.0 | 0.00 | 0.00 | 0.00 | 57 | 1018.4 |
| 20260902191027 | 96 | 242 | 4.3 | 7.0 | 0.00 | 0.00 | 0.00 | 58 | 1018.6 |
| 20260902190520 | 96 | 249 | 3.5 | 6.1 | 0.00 | 0.00 | 0.00 | 58 | 1018.6 |
| 20260902190030 | 96 | 239 | 3.5 | 5.2 | 0.00 | 0.00 | 0.00 | 58 | 1018.6 |
| 20260902185522 | 96 | 236 | 3.5 | 5.2 | 0.00 | 0.00 | 0.00 | 59 | 1018.6 |
| 20260902185032 | 95 | 223 | 3.5 | 4.3 | 0.00 | 0.00 | 0.00 | 59 | 1018.6 |
| 20260902184524 | 96 | 241 | 4.3 | 7.8 | 0.00 | 0.00 | 0.00 | 56 | 1018.6 |
| 20260902184016 | 96 | 245 | 4.3 | 6.1 | 0.00 | 0.00 | 0.00 | 56 | 1018.6 |
| 20260902183527 | 96 | 253 | 3.5 | 5.2 | 0.00 | 0.00 | 0.00 | 61 | 1018.7 |
| 20260902183020 | 95 | 216 | 3.5 | 5.2 | 0.00 | 0.00 | 0.00 | 61 | 1018.7 |
| 20260902182529 | 96 | 265 | 3.5 | 7.0 | 0.00 | 0.00 | 0.00 | 59 | 1018.8 |
| 20260902182021 | 95 | 235 | 2.6 | 4.3 | 0.00 | 0.00 | 0.00 | 60 | 1018.8 |
| 20260902181532 | 95 | 223 | 2.6 | 4.3 | 0.00 | 0.00 | 0.00 | 59 | 1018.8 |
| 20260902181024 | 94 | 244 | 3.5 | 6.1 | 0.00 | 0.00 | 0.00 | 60 | 1018.9 |
| 20260902180516 | 94 | 221 | 3.5 | 7.8 | 0.00 | 0.00 | 0.00 | 61 | 1018.9 |
| 20260902180026 | 95 | 244 | 3.5 | 6.1 | 0.00 | 0.00 | 0.00 | 60 | 1019.0 |
| 20260902175518 | 94 | 220 | 3.5 | 6.1 | 0.00 | 0.00 | 0.00 | 61 | 1019.0 |
| 20260902175022 | 95 | 238 | 4.3 | 6.1 | 0.00 | 0.00 | 0.00 | 62 | 1019.1 |
| 20260902174523 | 94 | 257 | 2.6 | 4.3 | 0.00 | 0.00 | 0.00 | 63 | 1019.1 |
| 20260902174019 | 94 | 222 | 2.6 | 3.5 | 0.00 | 0.00 | 0.00 | 65 | 1019.2 |
| 20260902173517 | 94 | 243 | 2.6 | 4.3 | 0.00 | 0.00 | 0.00 | 63 | 1019.3 |
| 20260902173015 | 94 | 272 | 3.5 | 6.1 | 0.00 | 0.00 | 0.00 | 61 | 1019.3 |
| 20260902172525 | 94 | 305 | 3.5 | 5.2 | 0.00 | 0.00 | 0.00 | 61 | 1019.5 |
| 20260902172017 | 94 | 251 | 3.5 | 4.3 | 0.00 | 0.00 | 0.00 | 63 | 1019.5 |
| 20260902171528 | 94 | 258 | 3.5 | 5.2 | 0.00 | 0.00 | 0.00 | 63 | 1019.5 |
| 20260902171020 | 93 | 256 | 2.6 | 4.3 | 0.00 | 0.00 | 0.00 | 64 | 1019.5 |
| 20260902170530 | 93 | 246 | 3.5 | 5.2 | 0.00 | 0.00 | 0.00 | 62 | 1019.6 |
| 20260902170023 | 93 | 283 | 4.3 | 6.1 | 0.00 | 0.00 | 0.00 | 62 | 1019.7 |
| 20260902165515 | 93 | 319 | 3.5 | 6.1 | 0.00 | 0.00 | 0.00 | 62 | 1019.7 |
| 20260902165025 | 92 | 315 | 3.5 | 7.0 | 0.00 | 0.00 | 0.00 | 65 | 1019.7 |
| 20260902164519 | 91 | 234 | 2.6 | 5.2 | 0.00 | 0.00 | 0.00 | 65 | 1019.7 |
| 20260902164054 | 91 | 135 | 2.6 | 2.6 | 0.00 | 0.00 | 0.00 | 65 | 1019.7 |
| 20260902162554 | 92 | 347 | 3.5 | 3.5 | 0.00 | 0.00 | 0.00 | 67 | 1019.7 |
| 20260902161534 | 90 | 224 | 2.6 | 4.3 | 0.00 | 0.00 | 0.00 | 69 | 1019.7 |
| 20260902140518 | 78 | 268 | 2.6 | 3.5 | 0.00 | 0.00 | 0.00 | 90 | 1019.7 |
| 20260902140029 | 78 | 217 | 2.6 | 3.5 | 0.00 | 0.00 | 0.00 | 91 | 1019.8 |
| 20260902135521 | 78 | 247 | 1.7 | 3.5 | 0.00 | 0.00 | 0.00 | 92 | 1019.8 |
| 20260902135031 | 77 | 229 | 1.7 | 3.5 | 0.00 | 0.00 | 0.00 | 93 | 1019.7 |
| 20260902134523 | 77 | 233 | 1.7 | 4.3 | 0.00 | 0.00 | 0.00 | 93 | 1019.6 |
| 20260902134015 | 76 | 244 | 1.7 | 3.5 | 0.00 | 0.00 | 0.00 | 94 | 1019.7 |
| 20260902133526 | 76 | 244 | 1.7 | 2.6 | 0.00 | 0.00 | 0.00 | 96 | 1019.7 |
| 20260902133019 | 76 | 272 | 1.7 | 3.5 | 0.00 | 0.00 | 0.00 | 97 | 1019.7 |
| 20260902132528 | 75 | 247 | 1.7 | 3.5 | 0.00 | 0.00 | 0.00 | 98 | 1019.8 |
| 20260902132027 | 75 | 221 | 1.7 | 3.5 | 0.00 | 0.00 | 0.00 | 99 | 1019.8 |
| 20260902131525 | 74 | 232 | 2.6 | 3.5 | 0.00 | 0.00 | 0.00 | 99 | 1019.7 |
| 20260902131017 | 74 | 235 | 1.7 | 3.5 | 0.00 | 0.00 | 0.00 | 99 | 1019.6 |
| 20260902130521 | 74 | 252 | 0.9 | 2.6 | 0.00 | 0.00 | 0.00 | 99 | 1019.6 |
| 20260902130019 | 73 | 0.0 | 0.0 | 0.00 | 0.00 | 0.00 | 99 | 1019.6 | |
| 20260902125517 | 73 | 0.0 | 0.0 | 0.00 | 0.00 | 0.00 | 99 | 1019.6 | |
| 20260902125015 | 73 | 234 | 0.0 | 1.7 | 0.00 | 0.00 | 0.00 | 99 | 1019.7 |
| 20260902124531 | 73 | 0.0 | 0.0 | 0.00 | 0.00 | 0.00 | 99 | 1019.7 | |
| 20260902124023 | 72 | 203 | 0.0 | 1.7 | 0.00 | 0.00 | 0.00 | 99 | 1019.7 |
| 20260902123516 | 72 | 248 | 0.0 | 1.7 | 0.00 | 0.00 | 0.00 | 99 | 1019.6 |
| 20260902123027 | 72 | 0.0 | 0.0 | 0.00 | 0.00 | 0.00 | 99 | 1019.6 | |
| 20260902122518 | 71 | 0.0 | 0.0 | 0.00 | 0.00 | 0.00 | 99 | 1019.6 | |
| 20260902122028 | 71 | 0.0 | 0.0 | 0.00 | 0.00 | 0.00 | 99 | 1019.6 | |
| 20260902121520 | 71 | 0.0 | 0.0 | 0.00 | 0.00 | 0.00 | 99 | 1019.6 | |
| 20260902121031 | 71 | 0.0 | 0.0 | 0.00 | 0.00 | 0.00 | 99 | 1019.5 | |
| 20260902120523 | 71 | 0.0 | 0.0 | 0.00 | 0.00 | 0.00 | 99 | 1019.5 | |
| 20260902120033 | 71 | 0.0 | 0.0 | 0.00 | 0.00 | 0.00 | 99 | 1019.3 | |
| 20260902115525 | 71 | 0.0 | 0.0 | 0.00 | 0.00 | 0.00 | 99 | 1019.3 | |
| 20260902115017 | 70 | 0.0 | 0.0 | 0.00 | 0.00 | 0.00 | 99 | 1019.3 | |
| 20260902114527 | 70 | 0.0 | 0.0 | 0.00 | 0.00 | 0.00 | 99 | 1019.3 | |
| 20260902114020 | 70 | 0.0 | 0.0 | 0.00 | 0.00 | 0.00 | 99 | 1019.3 | |
| 20260902113530 | 70 | 0.0 | 0.0 | 0.00 | 0.00 | 0.00 | 99 | 1019.1 | |
| 20260902113023 | 70 | 0.0 | 0.0 | 0.00 | 0.00 | 0.00 | 99 | 1019.1 | |
| 20260902112532 | 70 | 0.0 | 0.0 | 0.00 | 0.00 | 0.00 | 99 | 1019.2 | |
| 20260902112024 | 70 | 0.0 | 0.0 | 0.00 | 0.00 | 0.00 | 99 | 1019.2 | |
| 20260902111517 | 70 | 0.0 | 0.0 | 0.00 | 0.00 | 0.00 | 99 | 1019.2 | |
| 20260902111027 | 71 | 0.0 | 0.0 | 0.00 | 0.00 | 0.00 | 99 | 1019.1 | |
| 20260902110519 | 71 | 0.0 | 0.0 | 0.00 | 0.00 | 0.00 | 99 | 1019.1 | |
| 20260902110029 | 71 | 0.0 | 0.0 | 0.00 | 0.00 | 0.00 | 99 | 1019.2 | |
| 20260902105521 | 71 | 0.0 | 0.0 | 0.00 | 0.00 | 0.00 | 99 | 1019.2 | |
| 20260902105032 | 71 | 308 | 1.7 | 3.5 | 0.00 | 0.00 | 0.00 | 99 | 1019.0 |
| 20260902104524 | 71 | 0.0 | 0.0 | 0.00 | 0.00 | 0.00 | 99 | 1019.0 | |
| 20260902104016 | 71 | 0.0 | 0.0 | 0.00 | 0.00 | 0.00 | 99 | 1018.9 | |
| 20260902103526 | 71 | 173 | 0.9 | 1.7 | 0.00 | 0.00 | 0.00 | 99 | 1018.9 |
| 20260902103025 | 71 | 0.0 | 0.0 | 0.00 | 0.00 | 0.00 | 99 | 1018.9 | |
| 20260902102523 | 71 | 0.0 | 0.0 | 0.00 | 0.00 | 0.00 | 99 | 1018.8 | |
| 20260902102015 | 71 | 0.0 | 0.0 | 0.00 | 0.00 | 0.00 | 99 | 1018.8 | |
| 20260902101520 | 71 | 0.0 | 0.0 | 0.00 | 0.00 | 0.00 | 99 | 1018.8 | |
| 20260902101017 | 71 | 0.0 | 0.0 | 0.00 | 0.00 | 0.00 | 99 | 1018.8 | |
| 20260902100516 | 71 | 0.0 | 0.0 | 0.00 | 0.00 | 0.00 | 99 | 1018.8 | |
| 20260902100020 | 71 | 0.0 | 0.0 | 0.00 | 0.00 | 0.00 | 99 | 1018.9 | |
| 20260902095530 | 71 | 0.0 | 0.9 | 0.00 | 0.00 | 0.00 | 99 | 1018.9 | |
| 20260902095022 | 71 | 0.0 | 0.0 | 0.00 | 0.00 | 0.00 | 99 | 1018.8 | |
| 20260902094533 | 71 | 0.0 | 0.0 | 0.00 | 0.00 | 0.00 | 99 | 1018.8 | |
| 20260902094025 | 71 | 0.0 | 0.0 | 0.00 | 0.00 | 0.00 | 99 | 1018.7 | |
| 20260902093517 | 71 | 0.0 | 0.0 | 0.00 | 0.00 | 0.00 | 99 | 1018.7 | |
| 20260902093027 | 71 | 0.0 | 0.0 | 0.00 | 0.00 | 0.00 | 99 | 1018.7 | |
| 20260902092519 | 71 | 0.0 | 0.0 | 0.00 | 0.00 | 0.00 | 99 | 1018.6 | |
| 20260902092029 | 71 | 158 | 0.0 | 1.7 | 0.00 | 0.00 | 0.00 | 99 | 1018.6 |
| 20260902091521 | 71 | 135 | 0.9 | 2.6 | 0.00 | 0.00 | 0.00 | 99 | 1018.6 |
| 20260902091032 | 71 | 124 | 0.0 | 1.7 | 0.00 | 0.00 | 0.00 | 99 | 1018.6 |
| 20260902090524 | 71 | 109 | 0.9 | 2.6 | 0.00 | 0.00 | 0.00 | 99 | 1018.6 |
| 20260902090016 | 72 | 0.0 | 0.0 | 0.00 | 0.00 | 0.00 | 99 | 1018.7 | |
| 20260902085526 | 72 | 0.0 | 0.0 | 0.00 | 0.00 | 0.00 | 99 | 1018.7 | |
| 20260902085018 | 72 | 0.0 | 0.0 | 0.00 | 0.00 | 0.00 | 99 | 1018.6 | |
| 20260902084529 | 72 | 0.0 | 0.0 | 0.00 | 0.00 | 0.00 | 99 | 1018.5 | |
| 20260902084021 | 72 | 0.0 | 0.0 | 0.00 | 0.00 | 0.00 | 99 | 1018.5 | |
| 20260902083532 | 72 | 0.0 | 0.0 | 0.00 | 0.00 | 0.00 | 99 | 1018.5 | |
| 20260902083023 | 72 | 0.0 | 0.0 | 0.00 | 0.00 | 0.00 | 99 | 1018.5 | |
| 20260902082515 | 72 | 0.0 | 0.0 | 0.00 | 0.00 | 0.00 | 99 | 1018.4 | |
| 20260902082026 | 72 | 0.0 | 0.0 | 0.00 | 0.00 | 0.00 | 99 | 1018.3 | |
| 20260902081518 | 72 | 0.0 | 0.0 | 0.00 | 0.00 | 0.00 | 99 | 1018.4 | |
| 20260902081028 | 73 | 0.0 | 0.0 | 0.00 | 0.00 | 0.00 | 99 | 1018.5 | |
| 20260902080520 | 73 | 126 | 0.9 | 1.7 | 0.00 | 0.00 | 0.00 | 99 | 1018.5 |
| 20260902080031 | 73 | 98 | 0.9 | 1.7 | 0.00 | 0.00 | 0.00 | 99 | 1018.3 |
| 20260902075522 | 73 | 0.0 | 0.0 | 0.00 | 0.00 | 0.00 | 98 | 1018.3 | |
| 20260902075027 | 73 | 0.0 | 0.0 | 0.00 | 0.00 | 0.00 | 98 | 1018.3 | |
| 20260902074526 | 73 | 0.0 | 0.0 | 0.00 | 0.00 | 0.00 | 97 | 1018.3 | |
| 20260902074017 | 73 | 0.0 | 0.0 | 0.00 | 0.00 | 0.00 | 97 | 1018.3 | |
| 20260902073521 | 74 | 0.0 | 0.0 | 0.00 | 0.00 | 0.00 | 97 | 1018.3 | |
| 20260902073019 | 74 | 180 | 0.0 | 1.7 | 0.00 | 0.00 | 0.00 | 97 | 1018.3 |
| 20260902072518 | 74 | 0.0 | 0.0 | 0.00 | 0.00 | 0.00 | 97 | 1018.3 | |
| 20260902072016 | 74 | 0.0 | 0.0 | 0.00 | 0.00 | 0.00 | 96 | 1018.3 | |
| 20260902071532 | 74 | 90 | 0.9 | 1.7 | 0.00 | 0.00 | 0.00 | 96 | 1018.3 |
| 20260902071024 | 75 | 90 | 0.0 | 1.7 | 0.00 | 0.00 | 0.00 | 95 | 1018.3 |
| 20260902070516 | 75 | 90 | 0.9 | 1.7 | 0.00 | 0.00 | 0.00 | 95 | 1018.4 |
| 20260902070027 | 75 | 252 | 0.9 | 1.7 | 0.00 | 0.00 | 0.00 | 94 | 1018.5 |
| 20260902065519 | 75 | 68 | 0.0 | 1.7 | 0.00 | 0.00 | 0.00 | 94 | 1018.5 |
| 20260902065029 | 75 | 222 | 0.9 | 1.7 | 0.00 | 0.00 | 0.00 | 94 | 1018.6 |
| 20260902064521 | 75 | 286 | 1.7 | 3.5 | 0.00 | 0.00 | 0.00 | 94 | 1018.6 |
| 20260902064032 | 75 | 0.0 | 0.0 | 0.00 | 0.00 | 0.00 | 93 | 1018.6 | |
| 20260902063524 | 75 | 203 | 0.0 | 1.7 | 0.00 | 0.00 | 0.00 | 93 | 1018.6 |
| 20260902063016 | 75 | 0.0 | 1.7 | 0.00 | 0.00 | 0.00 | 93 | 1018.6 | |
| 20260902062526 | 75 | 270 | 0.0 | 1.7 | 0.00 | 0.00 | 0.00 | 93 | 1018.7 |
| 20260902062018 | 75 | 227 | 0.9 | 1.7 | 0.00 | 0.00 | 0.00 | 93 | 1018.7 |
| 20260902061528 | 75 | 232 | 0.9 | 2.6 | 0.00 | 0.00 | 0.00 | 93 | 1018.6 |
| 20260902061020 | 75 | 225 | 0.0 | 1.7 | 0.00 | 0.00 | 0.00 | 92 | 1018.6 |
| 20260902060531 | 76 | 90 | 0.0 | 1.7 | 0.00 | 0.00 | 0.00 | 92 | 1018.6 |
| 20260902060023 | 76 | 0.0 | 0.9 | 0.00 | 0.00 | 0.00 | 92 | 1018.6 | |
| 20260902055515 | 76 | 232 | 0.9 | 1.7 | 0.00 | 0.00 | 0.00 | 92 | 1018.6 |
| 20260902055026 | 76 | 0.0 | 0.9 | 0.00 | 0.00 | 0.00 | 91 | 1018.6 | |
| 20260902054518 | 76 | 216 | 0.0 | 1.7 | 0.00 | 0.00 | 0.00 | 91 | 1018.6 |
| 20260902054023 | 76 | 0.0 | 0.0 | 0.00 | 0.00 | 0.00 | 91 | 1018.6 | |
| 20260902053533 | 76 | 0.0 | 0.0 | 0.00 | 0.00 | 0.00 | 90 | 1018.5 | |
| 20260902053025 | 77 | 0.0 | 0.0 | 0.00 | 0.00 | 0.00 | 90 | 1018.5 | |
| 20260902052517 | 77 | 247 | 0.0 | 1.7 | 0.00 | 0.00 | 0.00 | 90 | 1018.3 |
| 20260902052027 | 77 | 235 | 0.9 | 2.6 | 0.00 | 0.00 | 0.00 | 90 | 1018.3 |
| 20260902051518 | 77 | 216 | 0.9 | 1.7 | 0.00 | 0.00 | 0.00 | 90 | 1018.3 |
| 20260902051029 | 77 | 238 | 0.9 | 2.6 | 0.00 | 0.00 | 0.00 | 90 | 1018.3 |
| 20260902050521 | 77 | 229 | 0.9 | 3.5 | 0.00 | 0.00 | 0.00 | 90 | 1018.3 |
| 20260902050025 | 77 | 236 | 1.7 | 4.3 | 0.00 | 0.00 | 0.00 | 90 | 1018.3 |
| 20260902045523 | 77 | 218 | 0.0 | 1.7 | 0.00 | 0.00 | 0.00 | 90 | 1018.3 |
| 20260902045015 | 77 | 272 | 0.9 | 1.7 | 0.00 | 0.00 | 0.00 | 90 | 1018.3 |
| 20260902044519 | 77 | 252 | 0.9 | 2.6 | 0.00 | 0.00 | 0.00 | 90 | 1018.3 |
| 20260902044018 | 77 | 233 | 0.9 | 3.5 | 0.00 | 0.00 | 0.00 | 91 | 1018.2 |
| 20260902043516 | 77 | 233 | 1.7 | 3.5 | 0.00 | 0.00 | 0.00 | 91 | 1018.2 |
| 20260902043020 | 77 | 286 | 2.6 | 4.3 | 0.00 | 0.00 | 0.00 | 91 | 1018.2 |
| 20260902042530 | 77 | 243 | 1.7 | 4.3 | 0.00 | 0.00 | 0.00 | 91 | 1018.1 |
| 20260902042022 | 77 | 217 | 2.6 | 3.5 | 0.00 | 0.00 | 0.00 | 91 | 1018.1 |
| 20260902041533 | 77 | 241 | 2.6 | 4.3 | 0.00 | 0.00 | 0.00 | 92 | 1018.1 |
| 20260902041025 | 77 | 228 | 1.7 | 3.5 | 0.00 | 0.00 | 0.00 | 92 | 1018.1 |
| 20260902040518 | 77 | 224 | 2.6 | 3.5 | 0.00 | 0.00 | 0.00 | 93 | 1018.1 |
| 20260902040027 | 77 | 233 | 2.6 | 4.3 | 0.00 | 0.00 | 0.00 | 93 | 1018.1 |
| 20260902035520 | 77 | 228 | 1.7 | 3.5 | 0.00 | 0.00 | 0.00 | 93 | 1018.1 |
| 20260902035030 | 77 | 230 | 2.6 | 3.5 | 0.00 | 0.00 | 0.00 | 93 | 1018.2 |
| 20260902034522 | 77 | 222 | 1.7 | 4.3 | 0.00 | 0.00 | 0.00 | 93 | 1018.3 |
| 20260902034029 | 77 | 238 | 1.7 | 2.6 | 0.00 | 0.00 | 0.00 | 93 | 1018.3 |
| 20260902033520 | 77 | 231 | 1.7 | 2.6 | 0.00 | 0.00 | 0.00 | 93 | 1018.3 |
| 20260902033029 | 77 | 230 | 0.9 | 2.6 | 0.00 | 0.00 | 0.00 | 93 | 1018.3 |
| 20260902032523 | 77 | 225 | 0.9 | 1.7 | 0.00 | 0.00 | 0.00 | 93 | 1018.4 |
| 20260902032031 | 77 | 229 | 0.9 | 2.6 | 0.00 | 0.00 | 0.00 | 93 | 1018.5 |
| 20260902031523 | 77 | 238 | 0.9 | 1.7 | 0.00 | 0.00 | 0.00 | 93 | 1018.4 |
| 20260902031016 | 77 | 225 | 0.0 | 1.7 | 0.00 | 0.00 | 0.00 | 93 | 1018.3 |
| 20260902030526 | 77 | 236 | 0.0 | 1.7 | 0.00 | 0.00 | 0.00 | 93 | 1018.3 |
| 20260902030019 | 77 | 0.0 | 0.9 | 0.00 | 0.00 | 0.00 | 93 | 1018.5 | |
| 20260902025529 | 77 | 212 | 0.0 | 1.7 | 0.00 | 0.00 | 0.00 | 93 | 1018.5 |
| 20260902025021 | 77 | 0.0 | 0.0 | 0.00 | 0.00 | 0.00 | 93 | 1018.5 | |
| 20260902024531 | 77 | 0.0 | 0.9 | 0.00 | 0.00 | 0.00 | 93 | 1018.5 | |
| 20260902024023 | 77 | 0.0 | 0.0 | 0.00 | 0.00 | 0.00 | 93 | 1018.5 | |
| 20260902023515 | 77 | 0.0 | 0.0 | 0.00 | 0.00 | 0.00 | 93 | 1018.5 | |
| 20260902023026 | 77 | 225 | 0.0 | 1.7 | 0.00 | 0.00 | 0.00 | 93 | 1018.5 |
| 20260902022518 | 77 | 218 | 0.0 | 1.7 | 0.00 | 0.00 | 0.00 | 94 | 1018.3 |
| 20260902022028 | 77 | 222 | 0.9 | 1.7 | 0.00 | 0.00 | 0.00 | 94 | 1018.3 |
| 20260902021520 | 77 | 213 | 0.9 | 1.7 | 0.00 | 0.00 | 0.00 | 94 | 1018.3 |
| 20260902021025 | 77 | 213 | 0.9 | 2.6 | 0.00 | 0.00 | 0.00 | 94 | 1018.3 |
| 20260902020523 | 77 | 203 | 0.9 | 2.6 | 0.00 | 0.00 | 0.00 | 94 | 1018.3 |
| 20260902020021 | 77 | 225 | 0.0 | 1.7 | 0.00 | 0.00 | 0.00 | 95 | 1018.3 |
| 20260902015519 | 77 | 203 | 0.0 | 0.9 | 0.00 | 0.00 | 0.00 | 95 | 1018.3 |
| 20260902015017 | 77 | 0.0 | 0.0 | 0.00 | 0.00 | 0.00 | 95 | 1018.3 | |
| 20260902014515 | 77 | 0.0 | 0.0 | 0.00 | 0.00 | 0.00 | 95 | 1018.3 | |
| 20260902014020 | 77 | 0.0 | 0.0 | 0.00 | 0.00 | 0.00 | 96 | 1018.2 | |
| 20260902013530 | 77 | 0.0 | 0.0 | 0.00 | 0.00 | 0.00 | 96 | 1018.2 | |
| 20260902013022 | 77 | 0.0 | 0.0 | 0.00 | 0.00 | 0.00 | 95 | 1018.2 | |
| 20260902012532 | 77 | 0.0 | 0.0 | 0.00 | 0.00 | 0.00 | 95 | 1018.1 | |
| 20260902012025 | 77 | 0.0 | 0.0 | 0.00 | 0.00 | 0.00 | 94 | 1018.1 |